Location: Kumla
(59.1265°N, 15.1401°E)
Time: 06:35:58
(UTC+01:00)

Transit 4A - Pass Details

Date: 12 December 2023
Orbit: 870 x 973 km, 66.8° (Epoch: 02 March)

Event Time Altitude Azimuth Distance (km) Brightness Sun altitude
Rises 20:08:06 0° 234° (SW) 3,659 11.4 -36.8°
Reaches altitude 10° 20:10:41 10° 236° (SW) 2,708 10.7 -37.1°
Enters shadow 20:13:43 30° 241° (WSW) 1,651 9.4 -37.5°
